Погода в Мариуполе

Поиск расширенной информации на нашем сайте:

Полезная информация:

Новости сайта



02.01.2020
Опубликован Долгосрочный прогноз погоды по городам России и ближнего зарубежья на январь 2020 года.
Карты: Прогноз на январь и февраль 2020 года, Сравнение прогнозируемой аномалии приземной температуры воздуха на январь 2020 года по разным моделям.




Погода в Мариуполе - сегодня

Время (UTC), дата Ветер
(°,м/с) 
Видим.   Явления Облачность Т
(°С)
Тd
(°С)
f(%) Тe
(°С)
Pmin
(гПа)
dP
(гПа)
Po
(мм)
O2
(г/м3)
Тmin Tmax R s Состояние
почвы
12 09.08.20 110 (В) 20000 м    ясно 
+28.2 +14 42 +35  1010.4  -0.5  752  272           
15 09.08.20 110 (В) 20000 м    ясно 
+27 +13.7 44 +27  1010  -0.4        300     
18 09.08.20 050 (СВ) 20000 м    ясно 
+25.2 +12.3 45 +29  1010.7  0.6  752  275    +30.7       
21 09.08.20 020 (С) 20000 м    ясно 
+24.2 +9 38 +24  1010.9  0.2  752  277           
00 10.08.20 050 (СВ) 20000 м    ясно 
+23 +9 41 +23  1011  0.1  752  278           
03 10.08.20 020 (С) 10 км    ясно 
+21.2 +9.2 46 +21  1011.8  0.7             
06 10.08.20 050 (СВ) 10 км    ясно 
+25 +9.2 37 +25  1012  0.3  753  276  +21.1         
09 10.08.20 140 (ЮВ) 20000 м    3/3 600 м 
[Cu hum]
+28.2 +13.4 40 +34  1011.9  753  272           
12 10.08.20 120 (ЮВ) 20000 м    3/3 600 м 
[Cu hum]
+27.8 +12.1 38 +32  1011.4  -0.5  753  273         
15 10.08.20 130 (ЮВ) 20000 м    3/3 600 м 
[Cu hum]
+27.6 +12.1 38 +32  1010.7  -0.7  752  273           
18 10.08.20 090 (В) 20000 м    ясно 
+25.4 +9.3 36 +26  1011.1  0.3  752  276    +28.8       
21 10.08.20 340 (С) 20000 м    ясно 
+21 +8.7 45 +21  1011.6  0.4  753  280           
00 11.08.20 340 (С) 20000 м    ясно 
+20 +8.8 48 +20  1011.5  -0.1  753  281           
03 11.08.20 020 (С) 10 км    ясно 
+18.4 +10.2 59 +20  1011.6  753  282           
06 11.08.20 110 (В) 10 км    3/0 верхняя 
[Cc]
+26.2 +11.9 41 +30  1011.6  0.3  753  275  +17.2        мокрая 
09 11.08.20 140 (ЮВ) 20000 м    4/3 600 м кучево-дожд., верхняя 
[Cb cap|Cs]
+26.8 +19 62 +43  1011.8  0.2  753  272         
12 11.08.20 290 (З) 10 км    8/6 840 м кучево-дожд., средняя, верхняя 
[Cb cap|Ac cuf|Cs]
+26.4 +16.9 56 +38  1012  0.2  753  273          мокрая 
15 11.08.20 320 (СЗ) 10 км  {ливн. осадки}  9/6 1200 м кучево-дожд., средняя, верхняя 
[Cb cap|Ac cast|Cs]
+23.2 +13.6 55 +29  1011.1  -1  752  277           
18 11.08.20 290 (З) 20000 м  {ливн. осадки}  6/0 средняя, верхняя 
[Ac trans|Cs]
+21.8 +14.3 62 +29  1011.7  0.5  753  278    +30  0.0     
21 11.08.20 320 (СЗ) 20000 м    3/0 верхняя 
[Cc]
+19.2 +14.5 74 +28  1011.3  -0.4  752  280           
00 12.08.20 290 (З) 20000 м    3/0 верхняя 
[Cs]
+17.4 +15.3 87 +27  1010.8  -0.6  752  282           
03 12.08.20 320 (СЗ) 10 км    3/0 верхняя 
[Cs]
+17.4 +14.4 83 +26  1010.7  -0.1  752  282           
06 12.08.20 300 (СЗ) 20000 м    8/0 верхняя 
[Cc]
+25 +15.4 55 +34  1010.9  0.4  752  274  +17        полностью
покрыта
пылью 
09 12.08.20 290 (З) 20000 м    6/6 800 м 
[Cu hum]
+29.1 +14.4 41 +37  1010.5  -0.3  752  271        598  мокрый или
старый снег
50-90% 
12 12.08.20 220 (ЮЗ) 20000 м    8/8 750 м верхняя 
[Cu hum|Ci sp]
+28.3 +15.6 46 +38  1009.8  -0.7  751  271           
Время (UTC), дата Ветер
(°,м/с) 
Видим.   Явления Облачность Т
(°С)
Тd
(°С)
f(%) Тe
(°С)
Pmin
(гПа)
dP
(гПа)
Po
(мм)
O2
(г/м3)
Тmin Tmax R s Состояние
почвы

Для получения пояснительной информации подведите курсор к названию столбца.

ПОГОДА в Мариуполе - архив

Всё, что Вы хотите узнать о погоде в Мариуполе - удобно и подробно!

Выберите нужную дату (начиная с 1 января 2019* года) и нажмите кнопку "Найти".
Будут отображены архивные сводки погоды по пункту Мариуполь, начиная с указанной даты.


Отображать данные в формате CSV (для использования в таблицах Excel)


Внимание! Наш архив погоды предназначен исключительно для личного некоммерческого использования в познавательных целях. Если Вам необходимы официальные справки о состоянии погоды (для производственных, юридических, коммерческих и т.п. целей), обращайтесь в органы Росгидромета.

*Примечание: данная дата относится к архиву по метеостанциям СССР (Россия, СНГ, Балтия).
Архив по метеостанциям Зарубежной Европы и Азии (кроме Китая) хранится 10 дней, по другим регионам земного шара (Китай, Африка, Америка, Австралия, Океания) - 1 день.

Мариуполь - район местоположения метеостанции


Название, широта, долгота, высота метеостанции:
Мариуполь (город) 47°ш. 37.5°д. 70 м над ур. моря [Украина]

Дополнительная информация

В oтличие oт бoльшинства пoгoдных сайтoв мы публикуем пoдрoбную метеoинфoрмацию в детальнoм прoфессиoнальнoм фoрмате.

Характеристики температуры и влажнoсти вoздуха измеряются на высoте 2 м в тени вдали oт зданий и деревьев.
Скoрoсть ветра измеряется на высoте 10 м (на урoвне рoста челoвека скoрoсть ветра ниже в 1.5-2 раза). Если метеoстанция нахoдится в гoрoде или в лесу, тo скoрoсть ветра занижена на 2-4 м/с пo сравнению с oткрытым местoм. Скoрoсть ветра над акватoриями крупных рек и oзёр, а также на вершинах хoлмoв на 2-5 м/с выше, чем в oбычных услoвиях.
Атмoсфернoе давление в разных тoчках местнoсти мoжет значительнo oтличаться oт давления на метеoстанции, в зависимoсти oт услoвий рельефа (при пoдъёме на 10 м давление пoнижается примернo на 1 мм рт.ст.).